Location: Sternwarte ZA, Rosenfeld-Brittheim
(48.2889°N, 8.6789°E)
Time: 19:42:59
(UTC+01:00)

ISS - Pass Details

Date: 15 December 2017
Orbit: 402 x 407 km, 51.6° (Epoch: 11 December)

Event Time Altitude Azimuth Distance (km) Brightness Sun altitude
Rises 17:53:23 0° 290° (WNW) 2,331 0.9 -12.9°
Reaches altitude 10° 17:55:35 10° 280° (W) 1,467 0.0 -13.2°
Maximum altitude 17:58:34 33° 215° (SW) 712 -2.0 -13.7°
Drops below altitude 10° 18:01:33 10° 150° (SSE) 1,458 -1.1 -14.1°
Enters shadow 18:03:17 - 141° (SE) 2,137 -0.4 -14.4°
